Location: Casa Rossa
(45.2389°N, 12.2056°E)
Time: 23:54:27
(UTC+00:00)

Cosmos 1697 Rocket - Pass Details

Date: 14 July 2020
Orbit: 834 x 842 km, 71.0° (Epoch: 14 August)

Event Time Altitude Azimuth Distance (km) Brightness Sun altitude
Rises 02:09:38 0° 326° (NW) 3,395 6.1 -12.5°
Reaches altitude 10° 02:12:16 10° 318° (NW) 2,455 5.2 -12.2°
Maximum altitude 02:17:16 34° 255° (WSW) 1,350 3.4 -11.6°
Drops below altitude 10° 02:22:14 10° 192° (SSW) 2,437 4.6 -11.0°
Enters shadow 02:22:28 - 191° (S) 2,516 4.7 -11.0°
